[[{"header":{"parameterUnit":"m.s-1","parameterCategory":1,"la1":30.2992,"la2":30.254,"lo1":-89.0895,"lo2":-89.0443,"dy":0.0025,"dx":0.0025,"nx":19,"ny":19,"refTime":"2026-05-23T03:00:00:Z","depth":0,"parameterNumber":2,"parameterNumberName":"U-component_of_WINDS"},"data":[0,0,0,-0.0652,-0.0655,-0.0832,-0.0833,-0.1045,-0.1046,0,0,0,0,0,0,0,0,0,0,0,-0.0585,-0.0586,-0.0652,-0.0656,-0.0832,-0.0833,-0.1044,-0.1046,0,0,0,0,0,0,0,0,0,0,0,-0.0584,-0.0585,-0.0586,-0.0656,-0.0832,-0.0833,-0.1044,-0.0917,0,0,0,0,0,0,0,0,0,0,-0.0749,-0.0671,-0.0585,-0.0586,-0.0657,-0.0832,-0.0833,-0.0911,-0.0925,-0.0956,0,-0.0975,0,-0.1013,-0.1059,-0.106,0,0,0,-0.0669,-0.0659,-0.0719,-0.0587,-0.0658,-0.0831,-0.0756,-0.0919,-0.0935,-0.0974,-0.0978,-0.0986,-0.1017,-0.106,-0.1061,-0.1183,-0.1183,0,0,-0.0659,-0.061,-0.0708,-0.0728,-0.0693,-0.075,-0.0761,-0.0929,-0.0932,-0.0979,-0.0992,-0.102,-0.1061,-0.1063,-0.1183,-0.1183,0,0,0,-0.0622,-0.0603,-0.066,-0.0719,-0.0751,-0.0755,-0.0768,-0.0925,-0.0947,-0.0994,-0.1022,-0.1062,-0.1065,-0.1183,-0.1183,-0.1131,0,0,0,-0.0617,-0.0581,-0.0655,-0.0627,-0.0748,-0.0839,-0.0759,-0.0935,-0.0956,-0.1021,-0.1063,-0.1067,-0.1183,-0.1183,-0.1133,-0.1116,0,0,0,-0.0579,-0.0577,-0.0597,-0.0624,-0.0697,-0.0837,-0.087,-0.0941,-0.0972,-0.106,-0.1067,-0.1183,-0.1183,-0.1134,-0.1118,-0.1133,0,0,0,-0.0526,-0.0552,-0.0595,-0.0636,-0.0695,-0.0801,-0.0869,-0.0953,-0.1021,-0.1063,-0.1183,-0.1183,-0.1134,-0.112,-0.1134,-0.1135,-0.1131,0,0,-0.0532,-0.0551,-0.0579,-0.0623,-0.0708,-0.0779,-0.086,-0.0972,-0.1029,-0.113,-0.1134,-0.1132,-0.1118,-0.1133,-0.1125,-0.112,0,0,0,-0.0565,-0.0584,-0.0617,-0.0676,-0.0759,-0.0829,-0.0933,-0.0975,-0.1062,-0.1068,-0.1143,-0.1137,-0.1147,-0.1151,-0.1147,-0.116,-0.1182,-0.1182,-0.1182,-0.0506,-0.0571,-0.0622,-0.0708,-0.0765,-0.0871,-0.0925,-0.1001,-0.1055,-0.1071,-0.1101,-0.1087,-0.1089,-0.1087,-0.11,-0.1108,-0.1108,-0.1107,-0.1107,-0.0521,-0.0559,-0.0625,-0.0697,-0.0768,-0.0833,-0.0937,-0.0972,-0.1046,-0.107,-0.1083,-0.1104,-0.1081,-0.1095,-0.1104,-0.1105,-0.1105,-0.1105,-0.1106,-0.049,-0.0519,-0.0565,-0.0657,-0.0722,-0.0811,-0.0877,-0.0941,-0.1003,-0.1016,-0.1055,-0.1056,-0.1066,-0.103,-0.103,-0.103,-0.1029,-0.1029,-0.1029,-0.0439,-0.0492,-0.0536,-0.0623,-0.067,-0.0739,-0.0845,-0.0895,-0.0967,-0.101,-0.101,-0.1063,-0.1065,-0.1064,-0.1029,-0.1029,-0.1029,-0.1029,-0.1029,-0.0431,-0.0442,-0.0509,-0.0555,-0.0663,-0.0724,-0.0804,-0.0899,-0.095,-0.0981,-0.1031,-0.1021,-0.1048,-0.1051,-0.1051,-0.1015,-0.1015,-0.1015,-0.1015,-0.0404,-0.0422,-0.0504,-0.0573,-0.0649,-0.0726,-0.0806,-0.089,-0.098,-0.1017,-0.1031,-0.1037,-0.1037,-0.1063,-0.1066,-0.1067,-0.1036,-0.1036,-0.1037,-0.0403,-0.043,-0.0483,-0.0563,-0.0653,-0.073,-0.0807,-0.0889,-0.0994,-0.1039,-0.1047,-0.1046,-0.1056,-0.1055,-0.11,-0.1103,-0.1106,0,0]},{"header":{"parameterUnit":"m.s-1","parameterCategory":1,"la1":30.2992,"la2":30.254,"lo1":-89.0895,"lo2":-89.0443,"dy":0.0025,"dx":0.0025,"nx":19,"ny":19,"refTime":"2026-05-23T03:00:00:Z","depth":0,"parameterNumber":3,"parameterNumberName":"V-component_of_WINDS"},"data":[0,0,0,0.7609,0.7611,0.772,0.7721,0.7854,0.7855,0,0,0,0,0,0,0,0,0,0,0,0.7571,0.7572,0.7609,0.7611,0.772,0.7721,0.7854,0.7855,0,0,0,0,0,0,0,0,0,0,0,0.7571,0.7572,0.7573,0.7612,0.772,0.7721,0.7853,0.7774,0,0,0,0,0,0,0,0,0,0,0.7669,0.7629,0.7572,0.7573,0.7612,0.772,0.7721,0.777,0.7779,0.7801,0,0.7819,0,0.7839,0.7863,0.7864,0,0,0,0.7616,0.7622,0.7656,0.7573,0.7613,0.772,0.7672,0.7775,0.7785,0.7813,0.7821,0.7826,0.7841,0.7864,0.7865,0.7977,0.7978,0,0,0.761,0.7589,0.7649,0.7662,0.7643,0.7669,0.7676,0.7781,0.7789,0.7821,0.7829,0.7843,0.7865,0.7866,0.7977,0.7977,0,0,0,0.7589,0.7584,0.7616,0.7656,0.7676,0.7672,0.768,0.7784,0.7796,0.7831,0.7845,0.7866,0.7867,0.7977,0.7977,0.7972,0,0,0,0.7586,0.7572,0.7613,0.7601,0.7674,0.7731,0.768,0.7789,0.7801,0.7844,0.7866,0.7868,0.7976,0.7977,0.7971,0.7973,0,0,0,0.7566,0.757,0.7584,0.76,0.7646,0.773,0.7748,0.7792,0.781,0.7864,0.7869,0.7976,0.7977,0.7971,0.7972,0.7996,0,0,0,0.7539,0.7578,0.7583,0.7633,0.7645,0.7725,0.7748,0.7809,0.7855,0.7866,0.7976,0.7977,0.797,0.7972,0.7995,0.8012,0.8016,0,0,0.7577,0.7582,0.7613,0.7621,0.7695,0.771,0.7785,0.7847,0.7873,0.7941,0.7944,0.7971,0.7972,0.7996,0.8052,0.8056,0,0,0,0.7618,0.764,0.7664,0.7706,0.7754,0.7795,0.7848,0.7872,0.7931,0.7903,0.7987,0.7988,0.8003,0.8012,0.8015,0.8029,0.798,0.798,0.798,0.7641,0.767,0.7723,0.7766,0.7806,0.786,0.7896,0.7937,0.7956,0.7975,0.7995,0.8026,0.8036,0.8038,0.8052,0.8007,0.8007,0.8007,0.8007,0.7699,0.7734,0.7757,0.7817,0.7848,0.7899,0.7953,0.7964,0.8017,0.8013,0.8028,0.802,0.8041,0.8055,0.8007,0.8007,0.8007,0.8007,0.8007,0.7717,0.7739,0.7766,0.7829,0.7875,0.7917,0.7966,0.7994,0.802,0.8034,0.8059,0.8059,0.8062,0.8044,0.8044,0.8044,0.8044,0.8044,0.8044,0.7725,0.7755,0.7793,0.7846,0.7877,0.792,0.7976,0.8007,0.8049,0.8065,0.8065,0.8081,0.8038,0.8026,0.8046,0.8046,0.8046,0.8045,0.8045,0.7772,0.7766,0.7823,0.7853,0.7919,0.7962,0.7997,0.8058,0.8088,0.8111,0.8125,0.8088,0.8096,0.8094,0.8084,0.8118,0.8118,0.8118,0.8118,0.7787,0.7793,0.7858,0.7904,0.7953,0.799,0.8055,0.8098,0.8143,0.8164,0.8163,0.8153,0.8149,0.8159,0.8155,0.8147,0.8196,0.8196,0.8196,0.7817,0.783,0.7879,0.7921,0.7974,0.802,0.8082,0.8136,0.8185,0.82,0.818,0.8177,0.8161,0.8154,0.8167,0.8161,0.8146,0,0]}]]